Location: Unspecified
(46.0725°N, 13.7344°E)
Time: 04:13:39
(UTC+02:00)

Cosmos 1674 - Visible Passes

Search period start: 16 October 2019 00:00
Search period end: 26 October 2019 00:00
Orbit: 494 x 520 km, 82.5° (Epoch: 14 October)

Date Brightness Start Highest point End Pass type
(mag) Time Alt. Az. Time Alt. Az. Time Alt. Az.
17 Oct 2.9 06:42:40 10° S 06:46:22 75° E 06:50:05 10° NNE visible
18 Oct 3.4 06:25:06 10° S 06:28:44 56° E 06:32:23 10° NNE visible
19 Oct 4.0 06:07:36 10° SSE 06:11:06 42° E 06:14:38 10° NNE visible
20 Oct 4.6 05:50:10 10° SSE 05:53:29 32° E 05:56:50 10° NNE visible
21 Oct 5.0 05:32:50 10° SE 05:35:54 25° E 05:38:59 10° NE visible
21 Oct 6.6 18:37:30 10° W 18:37:35 10° W 18:37:40 10° W visible
22 Oct 5.4 05:15:35 10° SE 05:18:18 20° E 05:21:03 10° NE visible
22 Oct 3.4 06:50:23 10° SW 06:53:39 29° WNW 06:56:58 10° NNW visible
23 Oct 5.7 04:58:31 10° ESE 05:00:44 15° E 05:02:58 10° NE visible
23 Oct 3.1 06:32:28 10° SW 06:35:56 37° WNW 06:39:27 10° N visible
24 Oct 6.0 04:41:43 10° ESE 04:43:11 12° E 04:44:39 10° ENE visible
24 Oct 2.7 06:14:38 10° SSW 06:18:14 49° WNW 06:21:53 10° N visible
25 Oct 2.5 05:56:53 10° SSW 06:00:33 66° W 06:04:17 10° N visible
